[[{"header":{"parameterUnit":"m.s-1","parameterCategory":1,"la1":30.2991,"la2":30.254,"lo1":-89.0895,"lo2":-89.0444,"dy":0.0017,"dx":0.0017,"nx":28,"ny":28,"refTime":"2023-08-17T09:00:00:Z","depth":0,"parameterNumber":2,"parameterNumberName":"U-component_of_WINDS"},"data":[0,0,0,0,0,0,0,0,0,0,0,0,0,0,0,0,0,0,0,0,0,0,0,0,0,0,0,0,0,0,0,0,0,0,0,0,0,0,0,0,0,0,0,0,0,0,0,0,0,0,0,0,0,0,0,0,0,0,-0.7105,-0.7105,0,-0.7115,-0.7115,-0.7115,-0.7169,-0.717,-0.7171,-0.7172,-0.7177,-0.7176,-0.7175,0,0,0,0,0,0,0,0,0,0,0,0,0,-0.7129,-0.7128,-0.7105,-0.7105,-0.7105,-0.7115,-0.7115,-0.7115,-0.7168,-0.717,-0.7172,-0.7173,-0.7178,-0.7176,-0.7175,0,0,0,0,0,0,0,0,0,0,0,0,0,-0.7126,-0.7128,-0.7105,-0.7133,-0.7136,-0.7115,-0.7115,-0.7115,-0.7168,-0.717,-0.7172,-0.7174,-0.7178,-0.7177,-0.7175,-0.7126,0,0,-0.717,-0.7169,0,0,0,0,0,0,0,0,-0.7127,-0.7125,-0.7129,-0.7131,-0.7134,-0.7143,-0.7125,-0.7119,-0.7168,-0.7156,-0.7172,-0.7175,-0.7164,-0.7164,-0.7161,-0.7126,-0.7127,-0.717,-0.7169,-0.7168,-0.7168,0,0,0,0,0,0,0,-0.7127,-0.7125,-0.7109,-0.7129,-0.7132,-0.7144,-0.7146,-0.7124,-0.7148,-0.7157,-0.7161,-0.7161,-0.7166,-0.7162,-0.7161,-0.7127,-0.717,-0.7169,-0.7168,-0.7167,-0.7052,-0.705,0,0,0,0,0,0,-0.7123,-0.7125,-0.7108,-0.7109,-0.7135,-0.7142,-0.7144,-0.7138,-0.7149,-0.7153,-0.716,-0.7164,-0.7164,-0.7163,-0.7162,-0.7104,-0.7168,-0.7167,-0.7166,-0.7054,-0.7051,-0.7049,0,0,0,0,0,0,-0.7124,-0.7121,-0.7108,-0.7118,-0.7118,-0.714,-0.7132,-0.7137,-0.7134,-0.7151,-0.7155,-0.7152,-0.7166,-0.7164,-0.7135,-0.7105,-0.7166,-0.7165,-0.7056,-0.7053,-0.705,-0.6988,0,0,0,0,0,0,-0.7124,-0.7121,-0.7103,-0.7118,-0.7117,-0.7081,-0.713,-0.7136,-0.7131,-0.7137,-0.7145,-0.7148,-0.7167,-0.7137,-0.7133,-0.7104,-0.7163,-0.7059,-0.7055,-0.7051,-0.6993,-0.6983,-0.6975,0,0,0,0,0,-0.7125,-0.7084,-0.7102,-0.71,-0.7095,-0.708,-0.7079,-0.7103,-0.7129,-0.711,-0.7122,-0.7148,-0.711,-0.7133,-0.713,-0.7099,-0.7061,-0.7056,-0.7051,-0.6997,-0.6985,-0.6975,0,0,0,0,0,0,-0.7064,-0.7087,-0.7106,-0.707,-0.7073,-0.7089,-0.7066,-0.709,-0.7084,-0.7089,-0.7118,-0.7119,-0.7085,-0.709,-0.7116,-0.7052,-0.709,-0.7084,-0.7049,-0.7038,-0.703,-0.7027,-0.7162,0,0,0,0,0,-0.7047,-0.7034,-0.7054,-0.7019,-0.702,-0.7043,-0.7037,-0.7056,-0.7059,-0.706,-0.7069,-0.707,-0.7058,-0.7049,-0.704,-0.6996,-0.6997,-0.6973,-0.6964,-0.6957,-0.695,-0.6925,-0.6914,-0.7034,-0.7034,-0.7034,0,0,-0.701,-0.7021,-0.701,-0.7008,-0.7012,-0.6996,-0.7043,-0.7025,-0.7012,-0.7056,-0.7029,-0.7036,-0.7039,-0.7002,-0.6986,-0.7005,-0.6918,-0.6951,-0.6944,-0.6942,-0.6919,-0.6908,-0.6898,-0.703,-0.7031,-0.7032,0,0,-0.6933,-0.6942,-0.6913,-0.6918,-0.6924,-0.694,-0.6934,-0.6947,-0.6954,-0.6928,-0.696,-0.6946,-0.6926,-0.6926,-0.6923,-0.6851,-0.6873,-0.6847,-0.6798,-0.6774,-0.6765,-0.6756,-0.6727,-0.6717,-0.6841,-0.6841,-0.6841,0,-0.6886,-0.6864,-0.6895,-0.6875,-0.6872,-0.6914,-0.6884,-0.6887,-0.6889,-0.6885,-0.6908,-0.6883,-0.6889,-0.6851,-0.6834,-0.6832,-0.6823,-0.6844,-0.6764,-0.6756,-0.6749,-0.6721,-0.6711,-0.6838,-0.6838,-0.6838,-0.6839,0,-0.6804,-0.6789,-0.6766,-0.6768,-0.6764,-0.6739,-0.6765,-0.6756,-0.6776,-0.6789,-0.6762,-0.677,-0.6762,-0.6756,-0.6775,-0.6721,-0.6733,-0.6759,-0.6797,-0.6733,-0.6708,-0.6698,-0.6833,-0.6834,-0.6835,-0.6836,0,0,-0.6685,-0.6708,-0.6698,-0.67,-0.6712,-0.67,-0.6678,-0.6672,-0.6663,-0.6665,-0.6644,-0.6628,-0.6653,-0.665,-0.667,-0.6649,-0.6588,-0.6679,-0.6679,-0.6658,-0.6527,-0.6503,-0.6491,-0.6606,-0.6604,-0.6603,-0.6525,0,-0.6609,-0.6572,-0.66,-0.6557,-0.6542,-0.6584,-0.6564,-0.6569,-0.6582,-0.657,-0.6585,-0.6571,-0.6607,-0.6605,-0.6587,-0.6599,-0.6561,-0.6606,-0.6584,-0.6583,-0.6577,-0.6478,-0.6453,-0.6379,-0.6516,-0.6515,-0.6513,0,-0.6514,-0.6513,-0.6469,-0.6485,-0.648,-0.6461,-0.6459,-0.6449,-0.6455,-0.6466,-0.6464,-0.649,-0.6467,-0.6508,-0.6476,-0.6506,-0.65,-0.6504,-0.6502,-0.6497,-0.6541,-0.6466,-0.6357,-0.6344,-0.6499,-0.65,-0.6501,0,-0.6427,-0.6415,-0.6387,-0.6388,-0.6407,-0.6392,-0.6399,-0.6408,-0.6403,-0.6401,-0.6398,-0.6393,-0.6388,-0.6384,-0.6407,-0.6435,-0.6371,-0.6414,-0.6376,-0.6375,-0.6356,-0.6356,-0.624,-0.636,-0.636,-0.636,-0.6361,0,-0.6337,-0.6307,-0.6348,-0.633,-0.6298,-0.6332,-0.6299,-0.631,-0.6318,-0.6302,-0.634,-0.6323,-0.6357,-0.6344,-0.6363,-0.6332,-0.6331,-0.6337,-0.6342,-0.6331,-0.633,-0.6323,-0.6327,-0.6358,-0.6358,-0.6359,-0.6359,0,-0.6231,-0.6258,-0.623,-0.6251,-0.6256,-0.6231,-0.6249,-0.6232,-0.625,-0.6229,-0.6226,-0.6252,-0.6239,-0.6263,-0.6253,-0.6266,-0.6221,-0.6236,-0.6219,-0.6221,-0.6181,-0.6183,-0.6052,-0.6036,-0.6171,-0.6169,-0.6168,0,-0.6169,-0.6148,-0.6168,-0.6161,-0.6166,-0.6154,-0.615,-0.6183,-0.6177,-0.6184,-0.6166,-0.6157,-0.6151,-0.6128,-0.6145,-0.6137,-0.6149,-0.6105,-0.6148,-0.6138,-0.6144,-0.6143,-0.6139,-0.6093,-0.6092,-0.609,-0.6089,0,-0.6055,-0.607,-0.6063,-0.6061,-0.6056,-0.6056,-0.6058,-0.605,-0.6086,-0.6077,-0.6065,-0.6061,-0.6052,-0.6041,-0.6038,-0.6044,-0.6071,-0.6077,-0.6067,-0.6053,-0.6042,-0.6044,-0.619,-0.6078,-0.6079,-0.608,-0.6081,-0.6081,-0.5966,-0.5949,-0.596,-0.5952,-0.5958,-0.596,-0.5945,-0.5962,-0.5953,-0.5949,-0.5971,-0.5953,-0.5962,-0.5961,-0.5964,-0.595,-0.597,-0.5956,-0.5952,-0.5947,-0.5939,-0.605,-0.5951,-0.5951,-0.5951,-0.5952,-0.5952,0,-0.585,-0.5861,-0.5853,-0.5856,-0.5849,-0.5881,-0.5886,-0.5877,-0.5862,-0.5868,-0.5863,-0.5849,-0.5839,-0.5857,-0.585,-0.5836,-0.5848,-0.5832,-0.5831,-0.5831,-0.5924,-0.5931,-0.5822,-0.5822,-0.5822,-0.5823,-0.5823,-0.5823,-0.5789,-0.576,-0.5777,-0.5752,-0.5763,-0.5748,-0.5747,-0.5749,-0.5754,-0.5737,-0.5731,-0.5744,-0.5754,-0.5749,-0.5741,-0.5747,-0.574,-0.5719,-0.5728,-0.5813,-0.5825,-0.5837,-0.5844,-0.5719,-0.5719,-0.5637,-0.5636,-0.5636]},{"header":{"parameterUnit":"m.s-1","parameterCategory":1,"la1":30.2991,"la2":30.254,"lo1":-89.0895,"lo2":-89.0444,"dy":0.0017,"dx":0.0017,"nx":28,"ny":28,"refTime":"2023-08-17T09:00:00:Z","depth":0,"parameterNumber":3,"parameterNumberName":"V-component_of_WINDS"},"data":[0,0,0,0,0,0,0,0,0,0,0,0,0,0,0,0,0,0,0,0,0,0,0,0,0,0,0,0,0,0,0,0,0,0,0,0,0,0,0,0,0,0,0,0,0,0,0,0,0,0,0,0,0,0,0,0,0,0,-1.3429,-1.343,0,-1.3518,-1.3519,-1.352,-1.3577,-1.3577,-1.3577,-1.3578,-1.3667,-1.3669,-1.3671,0,0,0,0,0,0,0,0,0,0,0,0,0,-1.3309,-1.3311,-1.3429,-1.343,-1.3432,-1.3518,-1.3519,-1.352,-1.3577,-1.3577,-1.3577,-1.3578,-1.3666,-1.3668,-1.3671,0,0,0,0,0,0,0,0,0,0,0,0,0,-1.3376,-1.3312,-1.3429,-1.347,-1.3475,-1.3517,-1.3519,-1.352,-1.3576,-1.3577,-1.3578,-1.3578,-1.3665,-1.3668,-1.3671,-1.3679,0,0,-1.3681,-1.3682,0,0,0,0,0,0,0,0,-1.3372,-1.338,-1.3463,-1.3467,-1.3473,-1.3537,-1.3509,-1.3574,-1.3576,-1.3538,-1.3578,-1.3578,-1.3623,-1.3629,-1.3645,-1.3684,-1.3687,-1.3681,-1.3683,-1.3684,-1.3685,0,0,0,0,0,0,0,-1.3367,-1.3377,-1.3464,-1.3464,-1.347,-1.3484,-1.3494,-1.3522,-1.3576,-1.3541,-1.3546,-1.3555,-1.3626,-1.3642,-1.3647,-1.3689,-1.3681,-1.3683,-1.3685,-1.3687,-1.3739,-1.3739,0,0,0,0,0,0,-1.3356,-1.3372,-1.3462,-1.3467,-1.3423,-1.3486,-1.3497,-1.3516,-1.3576,-1.3586,-1.3555,-1.3558,-1.3636,-1.3644,-1.3651,-1.3664,-1.3684,-1.3687,-1.3689,-1.374,-1.3739,-1.3739,0,0,0,0,0,0,-1.3353,-1.3364,-1.3458,-1.3421,-1.3434,-1.3487,-1.3508,-1.3517,-1.3533,-1.3586,-1.3596,-1.3561,-1.3637,-1.3646,-1.3672,-1.3668,-1.3688,-1.3691,-1.374,-1.374,-1.3739,-1.3692,0,0,0,0,0,0,-1.335,-1.3362,-1.3366,-1.3421,-1.3436,-1.3478,-1.3508,-1.3518,-1.3539,-1.3543,-1.3595,-1.3604,-1.3638,-1.3667,-1.3675,-1.3673,-1.3693,-1.3741,-1.374,-1.3739,-1.3694,-1.3689,-1.3686,0,0,0,0,0,-1.3345,-1.3349,-1.3366,-1.3376,-1.3442,-1.3477,-1.3486,-1.3525,-1.3538,-1.3542,-1.3576,-1.3603,-1.3668,-1.3669,-1.3679,-1.3677,-1.3741,-1.374,-1.3739,-1.3696,-1.369,-1.3686,0,0,0,0,0,0,-1.3291,-1.3356,-1.3376,-1.3398,-1.3432,-1.3487,-1.3493,-1.3519,-1.3549,-1.3552,-1.36,-1.3611,-1.3632,-1.3658,-1.3658,-1.3689,-1.3708,-1.3708,-1.3671,-1.3667,-1.3663,-1.3655,-1.3696,0,0,0,0,0,-1.3282,-1.3306,-1.3362,-1.3375,-1.3391,-1.3439,-1.3456,-1.3484,-1.3521,-1.3535,-1.3572,-1.3606,-1.3635,-1.3652,-1.3681,-1.3698,-1.371,-1.3702,-1.3698,-1.3695,-1.3694,-1.3705,-1.3702,-1.3736,-1.3736,-1.3736,0,0,-1.3263,-1.3301,-1.3314,-1.3365,-1.3395,-1.3418,-1.3451,-1.3474,-1.3492,-1.3539,-1.3565,-1.3593,-1.3635,-1.3657,-1.3668,-1.3679,-1.3688,-1.3693,-1.369,-1.3692,-1.3704,-1.3701,-1.3698,-1.3735,-1.3735,-1.3735,0,0,-1.324,-1.3271,-1.3286,-1.3316,-1.336,-1.3393,-1.3396,-1.3448,-1.3468,-1.3496,-1.3532,-1.3554,-1.3602,-1.363,-1.3651,-1.364,-1.3665,-1.3648,-1.3627,-1.3637,-1.3634,-1.3632,-1.3628,-1.3626,-1.3648,-1.3648,-1.3648,0,-1.321,-1.3247,-1.329,-1.3312,-1.3334,-1.3378,-1.3393,-1.342,-1.3471,-1.3485,-1.3497,-1.3559,-1.359,-1.3618,-1.3616,-1.3631,-1.3637,-1.3642,-1.3631,-1.363,-1.3628,-1.3625,-1.3623,-1.3646,-1.3646,-1.3646,-1.3646,0,-1.3208,-1.3233,-1.324,-1.3289,-1.3312,-1.333,-1.3376,-1.3394,-1.342,-1.3451,-1.3479,-1.3518,-1.3556,-1.3565,-1.3591,-1.3598,-1.3603,-1.3622,-1.3642,-1.3622,-1.3619,-1.3618,-1.3642,-1.3643,-1.3644,-1.3644,0,0,-1.3151,-1.3226,-1.3227,-1.325,-1.3304,-1.3324,-1.3345,-1.3383,-1.3397,-1.3432,-1.345,-1.349,-1.3509,-1.3532,-1.3561,-1.357,-1.3559,-1.3589,-1.3591,-1.3581,-1.3569,-1.3553,-1.3551,-1.3577,-1.3577,-1.3576,-1.3565,0,-1.3135,-1.3174,-1.3215,-1.3239,-1.3263,-1.3307,-1.3325,-1.336,-1.3389,-1.3414,-1.3447,-1.3475,-1.3497,-1.3512,-1.3523,-1.3558,-1.3557,-1.3559,-1.3593,-1.3594,-1.358,-1.355,-1.3533,-1.352,-1.3565,-1.3564,-1.3564,0,-1.3121,-1.3154,-1.3181,-1.3234,-1.3245,-1.326,-1.3299,-1.3322,-1.3363,-1.3384,-1.3411,-1.3442,-1.3466,-1.3484,-1.3517,-1.3518,-1.3535,-1.3554,-1.3555,-1.3558,-1.3577,-1.3551,-1.3517,-1.3515,-1.3563,-1.3563,-1.3563,0,-1.3076,-1.3128,-1.3151,-1.317,-1.3231,-1.3241,-1.3267,-1.3308,-1.3328,-1.3362,-1.3376,-1.3412,-1.3431,-1.3458,-1.3498,-1.3508,-1.3527,-1.3549,-1.3545,-1.3544,-1.3546,-1.3545,-1.3512,-1.3558,-1.3558,-1.3558,-1.3558,0,-1.3053,-1.3067,-1.3131,-1.3145,-1.3163,-1.321,-1.3227,-1.3257,-1.3293,-1.3314,-1.3354,-1.3373,-1.3425,-1.345,-1.3482,-1.3505,-1.3513,-1.3531,-1.3539,-1.3527,-1.3524,-1.3537,-1.3538,-1.3558,-1.3558,-1.3558,-1.3558,0,-1.3004,-1.3048,-1.3076,-1.3132,-1.3147,-1.3158,-1.3206,-1.3221,-1.3254,-1.328,-1.3289,-1.334,-1.3371,-1.3415,-1.346,-1.3481,-1.3499,-1.3513,-1.3485,-1.349,-1.3483,-1.3483,-1.3457,-1.3456,-1.3503,-1.3503,-1.3502,0,-1.2986,-1.2998,-1.3057,-1.3074,-1.3098,-1.3125,-1.3147,-1.3194,-1.3214,-1.3262,-1.3272,-1.3307,-1.3337,-1.3385,-1.3426,-1.3461,-1.3475,-1.3463,-1.348,-1.3467,-1.3473,-1.3472,-1.3473,-1.3458,-1.3458,-1.3457,-1.3457,0,-1.2948,-1.297,-1.2999,-1.3036,-1.3061,-1.3092,-1.3126,-1.3137,-1.3192,-1.3213,-1.3246,-1.3269,-1.3316,-1.3349,-1.339,-1.3417,-1.3445,-1.3452,-1.3452,-1.3439,-1.3422,-1.343,-1.3473,-1.3451,-1.3452,-1.3452,-1.3453,-1.3453,-1.2914,-1.2927,-1.297,-1.3002,-1.3032,-1.3063,-1.308,-1.3116,-1.3144,-1.3186,-1.3212,-1.3244,-1.3285,-1.3343,-1.3369,-1.3394,-1.3406,-1.3407,-1.3407,-1.3406,-1.3402,-1.342,-1.3402,-1.3402,-1.3402,-1.3402,-1.3402,0,-1.2877,-1.2908,-1.2937,-1.2982,-1.3007,-1.3034,-1.3073,-1.3092,-1.3119,-1.3156,-1.3185,-1.3223,-1.3257,-1.3301,-1.3338,-1.335,-1.3364,-1.3358,-1.3356,-1.3362,-1.339,-1.3385,-1.3346,-1.3346,-1.3346,-1.3346,-1.3346,-1.3346,-1.2861,-1.2885,-1.2912,-1.2951,-1.2982,-1.3013,-1.3033,-1.3062,-1.3091,-1.3132,-1.316,-1.319,-1.323,-1.327,-1.3302,-1.3314,-1.3325,-1.3315,-1.3331,-1.3355,-1.336,-1.3365,-1.3361,-1.3317,-1.3317,-1.3301,-1.3301,-1.3301]}]]